Challis, ID

6:05 AM MST on November 19, 2017 (GMT -0700)
Challis

Weather History for KLLJ - January, 2014

Change the Weather History Date:

Thursday, January 30, 2014

  Actual Average Record
Temperature  
Mean Temperature 28 °F 21 °F  
Max Temperature 39 °F 31 °F 59 °F (1971)
Min Temperature 17 °F 10 °F -27 °F (1951)
Degree Days  
Heating Degree Days 37 44  
Month to date heating degree days 1169 1382  
Since 1 July heating degree days 4625 4878  
Cooling Degree Days 0 0  
Month to date cooling degree days 0 0  
Year to date cooling degree days 0 0  
Moisture  
Dew Point 20 °F    
Average Humidity 70    
Maximum Humidity 81    
Minimum Humidity 59    
Precipitation  
Precipitation T in 0.02 in 0.51 in (1915)
Month to date precipitation 0.23 0.50  
Year to date precipitation 0.23 0.50  
Sea Level Pressure  
Sea Level Pressure 29.73 in    
Wind  
Wind Speed 4 mph (South)    
Max Wind Speed 16 mph    
Max Gust Speed 20 mph    
Visibility 10 miles    
Events Snow    
T = Trace of Precipitation, MM = Missing Value Source: NWS Daily Summary

Daily Weather History Graph

Daily Weather History Graph

Search for Another Location

Airport or City:

Trip Planner

Search our weather history database for the weather conditions in past years. The results will help you decide how hot, cold, wet, or windy it might be!

Date:

Astronomy

Jan. 30, 2014 Rise Set
Actual Time 7:57 AM MST 5:43 PM MST
Civil Twilight 7:26 AM MST 6:14 PM MST
Nautical Twilight 6:51 AM MST 6:49 PM MST
Astronomical Twilight 6:17 AM MST 7:23 PM MST
Moon 7:24 AM MST (1/30) 6:02 PM MST (1/30)
Length of Visible Light 10h 48m
Length of Day
9h 45m
Waning Crescent, 0% of the Moon is Illuminated
Jan 30
Waning Crescent
Jan 30
New
Feb 6
First Quarter
Feb 14
Full
Feb 22
Last Quarter

Hourly Weather History & Observations

Time (MST) Temp. Windchill Dew Point Humidity Pressure Visibility Wind Dir Wind Speed Gust Speed Precip Events Conditions
12:55 AM 32.0 °F 26.4 °F 26.1 °F 79% 29.70 in 10.0 mi SW 5.8 mph - N/A   Overcast
1:55 AM 30.0 °F 24.1 °F 24.1 °F 79% 29.68 in 10.0 mi SSW 5.8 mph - N/A   Overcast
2:55 AM 30.0 °F - 23.0 °F 75% 29.68 in 10.0 mi Calm Calm - N/A   Mostly Cloudy
3:55 AM 28.9 °F 22.8 °F 21.9 °F 75% 29.68 in 10.0 mi South 5.8 mph - N/A   Overcast
4:55 AM 25.0 °F 18.1 °F 19.0 °F 78% 29.70 in 10.0 mi South 5.8 mph - N/A   Scattered Clouds
5:55 AM 28.0 °F 21.7 °F 19.9 °F 72% 29.69 in 10.0 mi South 5.8 mph - N/A   Mostly Cloudy
6:55 AM 25.0 °F 20.7 °F 19.0 °F 78% 29.72 in 10.0 mi South 3.5 mph - N/A   Overcast
7:55 AM 26.1 °F - 18.0 °F 71% 29.72 in 10.0 mi Calm Calm - N/A   Overcast
8:55 AM 26.1 °F 20.5 °F 18.0 °F 71% 29.73 in 10.0 mi ESE 4.6 mph - N/A   Mostly Cloudy
9:55 AM 30.9 °F - 19.0 °F 61% 29.72 in 10.0 mi Calm Calm - N/A   Clear
10:55 AM 33.1 °F 26.9 °F 21.9 °F 64% 29.73 in 10.0 mi North 6.9 mph - N/A   Scattered Clouds
11:55 AM 33.1 °F 28.7 °F 23.0 °F 66% 29.72 in 10.0 mi North 4.6 mph - N/A   Partly Cloudy
12:55 PM 36.0 °F 32.1 °F 24.1 °F 62% 29.70 in 8.0 mi NNE 4.6 mph - 0.00 in Snow Light Snow
1:55 PM 37.9 °F - 23.0 °F 55% 29.69 in 10.0 mi Calm Calm - 0.00 in   Mostly Cloudy
2:55 PM 36.0 °F - 23.0 °F 59% 29.68 in 10.0 mi Calm Calm - N/A   Clear
3:55 PM 35.1 °F 31.0 °F 25.0 °F 67% 29.70 in 10.0 mi South 4.6 mph - N/A   Clear
4:55 PM 33.1 °F 27.7 °F 24.1 °F 70% 29.72 in 10.0 mi NW 5.8 mph - N/A   Scattered Clouds
5:55 PM 30.9 °F 26.2 °F 21.9 °F 69% 29.73 in 10.0 mi WNW 4.6 mph - N/A   Overcast
6:55 PM 30.0 °F 25.2 °F 19.0 °F 64% 29.75 in 10.0 mi NE 4.6 mph - N/A   Overcast
7:55 PM 26.1 °F - 18.0 °F 71% 29.78 in 10.0 mi Calm Calm - N/A   Clear
8:55 PM 26.1 °F 19.4 °F 15.1 °F 63% 29.80 in 10.0 mi SE 5.8 mph - N/A   Clear
9:55 PM 21.9 °F 15.7 °F 14.0 °F 72% 29.81 in 10.0 mi WNW 4.6 mph - N/A   Clear
10:55 PM 23.0 °F 17.0 °F 10.9 °F 60% 29.81 in 10.0 mi NE 4.6 mph - N/A   Clear
11:55 PM 19.0 °F - 12.9 °F 77% 29.85 in 10.0 mi Calm Calm - N/A   Clear